Theta_e
314 313 311 310 310 309 309 310 310 309 305 306 306 304 302 302 301 301 301 301 300 301 301 301 302 302 303 304 304 305 306 307 307 306 307 307 309 310 317 325 328 328 328 327 327 326 325 325 322 321 320 319 318 318 318 317 316 315 315 314 314 314 313 312 312 312 312 311 311 312 312 311 311 311 311 311 312 311 312 311 311 311 311 310 311
314 312 310 309 308 307 307 307 308 305 304 307 305 303 302 301 300 300 300 300 300 300 300 300 300 300 301 302 302 303 305 306 306 305 305 306 306 307 311 316 325 327 326 325 323 323 324 323 322 319 321 318 318 318 318 316 315 315 314 314 313 313 313 312 312 311 311 310 311 311 311 311 310 310 310 311 310 310 310 310 310 310 310 309 309
314 312 309 308 307 307 306 306 306 304 305 308 305 303 302 301 300 299 299 299 298 298 299 299 298 299 299 299 300 302 303 304 304 304 303 303 303 304 305 310 316 321 324 323 323 323 324 323 321 319 319 318 318 317 317 316 316 315 314 313 313 312 312 311 311 310 310 310 310 310 310 309 309 309 309 309 309 309 308 310 309 310 309 309 308
314 312 308 307 307 306 306 305 305 303 308 307 304 303 301 300 298 298 298 298 296 296 297 298 297 297 297 297 297 299 298 300 301 301 300 300 301 301 302 303 308 313 317 322 323 322 323 322 321 320 319 318 318 318 316 315 315 315 314 314 312 311 311 311 311 310 310 310 310 310 309 309 309 309 308 308 308 308 308 309 309 308 308 308 308
315 313 308 308 307 306 306 305 305 305 308 306 304 302 300 298 297 297 296 296 295 295 296 295 295 294 295 294 295 295 296 297 298 298 298 297 298 299 299 300 300 305 310 315 320 319 320 319 319 318 317 317 316 316 315 314 314 314 313 313 312 311 310 310 310 310 310 310 310 309 308 308 308 308 307 307 307 307 307 308 308 307 308 307 307
317 313 310 309 309 307 306 305 305 308 307 306 304 302 299 298 296 296 297 296 295 294 294 293 291 292 292 292 293 294 295 295 295 296 295 295 295 296 296 296 297 299 301 307 312 316 318 317 316 316 317 317 315 314 315 313 313 312 311 311 311 311 310 310 310 309 309 309 309 308 308 307 307 307 307 307 306 306 306 307 307 307 307 307 306
321 316 311 311 311 309 308 307 308 309 307 306 304 301 299 297 296 296 296 296 295 294 294 293 293 292 291 292 292 293 294 294 294 294 294 293 294 294 293 295 295 295 296 297 302 309 315 316 315 314 313 314 317 316 315 313 312 311 311 310 310 310 309 310 309 309 309 308 308 307 307 306 306 306 306 306 305 305 305 305 306 306 306 306 306
325 321 314 313 313 311 309 308 310 311 310 307 305 302 299 298 297 297 295 294 294 293 293 293 293 291 290 290 291 292 293 293 293 293 293 293 292 292 293 292 292 293 294 292 294 300 309 312 315 316 313 314 312 313 312 313 312 311 311 310 309 309 309 309 309 309 308 308 307 306 306 305 305 305 305 305 305 305 305 305 305 306 306 306 306
327 325 321 318 317 314 313 311 312 312 310 308 306 304 300 299 298 297 297 294 293 292 292 292 292 291 289 289 289 291 291 292 292 292 294 292 291 291 291 291 291 292 288 289 291 292 300 307 311 312 313 315 312 311 311 311 311 311 310 310 310 309 308 308 308 307 307 306 305 305 305 305 305 305 305 304 304 304 304 304 304 304 305 305 305
329 327 326 323 321 317 315 314 313 312 310 308 307 305 302 300 298 297 297 295 293 292 292 292 292 291 290 289 289 289 289 291 292 293 292 290 290 290 290 289 288 287 287 287 287 289 291 297 302 304 307 312 312 311 310 311 310 310 310 309 309 308 307 307 306 306 305 305 305 305 304 304 304 304 304 304 304 303 305 304 304 304 304 305 305
330 328 327 326 325 320 317 315 313 312 310 308 307 304 302 300 298 297 296 295 294 293 292 292 291 290 290 288 287 287 288 289 290 290 290 290 290 290 289 287 287 286 285 285 285 287 288 288 289 291 296 307 312 313 313 310 310 310 310 309 309 307 307 307 306 305 305 304 304 304 304 304 304 304 304 304 304 304 304 304 305 305 304 304 304
331 330 328 327 326 324 318 316 313 312 310 308 306 304 302 300 298 296 295 294 294 293 293 291 290 289 289 287 286 287 288 288 287 288 289 289 289 288 287 285 286 284 285 284 285 285 286 287 288 287 289 297 304 307 309 311 310 309 310 309 308 307 306 306 305 304 304 304 304 303 304 303 303 303 303 303 303 304 304 304 304 304 304 304 304
330 330 329 325 327 326 320 316 314 312 311 309 308 305 303 301 299 297 295 293 292 293 292 292 289 288 288 287 286 288 291 288 287 287 287 287 286 287 286 286 285 285 284 284 284 284 284 285 285 285 286 285 290 299 302 304 309 309 308 308 308 307 307 306 305 304 303 303 303 303 302 302 302 302 302 303 303 303 304 304 304 305 304 304 305
328 330 329 329 327 326 322 317 314 312 311 310 308 305 303 302 299 296 296 294 292 293 292 292 290 288 286 285 285 287 290 288 287 286 285 285 286 286 286 286 285 285 285 285 283 284 284 284 284 285 285 286 286 287 289 291 297 309 308 307 307 307 306 306 305 303 303 303 302 302 302 302 302 302 302 302 303 303 303 304 304 304 305 304 304
330 328 329 329 328 326 324 320 315 312 311 310 308 306 304 302 299 297 294 294 293 293 292 293 290 289 289 286 284 284 287 287 286 286 287 287 286 285 286 285 285 285 285 285 284 284 284 284 284 284 284 285 286 287 288 293 294 300 305 307 307 306 307 306 305 304 302 302 302 302 302 302 302 302 302 302 302 303 303 303 303 305 305 305 304
330 329 328 329 328 327 326 322 317 314 312 310 308 306 304 303 300 299 297 293 292 291 293 293 291 289 286 288 286 285 283 284 284 286 287 287 287 287 286 285 285 284 284 284 284 284 285 285 284 284 285 285 285 286 287 287 294 296 297 299 304 306 305 305 304 304 303 302 303 301 302 301 302 302 302 302 302 302 302 303 303 303 304 304 305
329 330 327 329 328 327 326 324 320 316 314 312 309 308 305 303 301 299 297 296 292 292 292 292 292 294 291 285 285 284 284 285 284 284 285 286 287 287 287 286 284 284 284 284 284 284 284 284 284 284 285 285 284 285 285 287 287 291 290 294 299 302 304 304 304 304 303 301 301 301 301 300 301 301 302 301 302 302 302 302 302 303 303 304 304
327 328 328 327 328 327 325 323 321 318 315 314 311 309 306 303 301 300 298 298 296 292 291 292 292 292 293 295 290 289 287 285 284 283 285 286 286 287 287 287 285 284 284 284 284 284 285 285 284 285 285 285 286 285 285 286 289 287 284 289 298 299 300 301 302 302 302 301 300 301 301 300 300 300 301 300 301 301 301 302 302 303 303 303 303
323 325 326 325 326 326 326 324 321 319 315 315 312 309 308 305 302 301 300 299 297 293 292 291 292 292 293 293 294 293 291 286 285 285 282 285 284 285 286 286 285 284 283 284 284 284 284 284 284 285 285 285 285 285 285 287 292 291 297 299 296 296 296 296 300 299 299 299 299 299 300 300 299 299 299 299 300 300 301 302 302 303 303 304 303
321 322 325 324 323 325 324 323 323 321 316 315 314 312 309 307 303 302 301 300 298 297 294 293 291 291 292 291 291 293 290 291 289 289 286 282 283 284 284 285 285 285 284 283 283 284 284 284 285 284 284 285 285 285 285 286 287 288 292 298 297 295 295 296 295 295 296 297 297 297 298 298 298 298 299 299 299 300 301 301 302 302 302 303 302
319 319 321 323 321 321 322 322 321 321 316 318 317 314 310 307 304 302 301 300 299 300 298 294 292 293 292 291 292 292 291 291 291 290 286 284 283 282 282 283 285 285 284 284 283 284 285 286 286 286 286 285 284 285 285 286 286 285 290 298 297 296 296 296 295 296 295 295 295 295 296 296 297 298 299 300 299 300 301 302 302 302 302 303 302
316 317 317 319 319 319 321 322 322 321 315 316 315 313 310 308 305 303 302 301 301 300 300 298 295 296 295 294 292 292 288 288 288 288 287 287 286 282 283 282 282 285 285 283 283 285 285 285 285 286 285 285 284 284 284 285 285 284 287 296 297 298 297 298 297 296 295 295 295 295 294 295 296 298 299 299 300 300 301 301 302 302 302 303 302
314 314 316 317 318 316 318 320 320 318 316 317 316 315 312 309 306 304 303 302 301 300 300 301 298 297 297 296 295 294 292 290 289 288 288 286 286 284 283 284 284 284 284 285 284 284 285 285 285 285 285 285 284 284 284 283 286 287 289 293 295 296 296 295 295 294 294 294 294 294 295 294 294 296 298 299 300 301 301 301 301 302 302 302 302
310 312 313 313 313 314 313 316 317 319 317 316 316 316 314 311 308 305 303 303 302 301 301 300 300 298 298 298 297 296 296 296 296 292 290 290 289 286 284 285 285 285 284 284 284 284 284 284 284 285 285 285 285 285 284 284 285 289 288 291 293 294 294 293 294 293 292 294 294 293 294 294 294 295 296 298 299 300 301 302 302 302 302 302 301
308 310 311 310 310 311 313 313 314 316 317 317 316 315 313 310 308 305 304 303 302 302 301 301 301 299 299 298 298 297 297 297 295 292 292 292 290 285 285 285 284 283 282 283 283 283 283 284 284 285 284 284 285 285 285 285 284 288 290 288 291 292 292 293 294 294 294 293 293 293 293 294 295 295 296 296 297 299 300 301 302 302 302 302 301
307 308 310 310 310 312 312 312 313 314 314 315 316 315 314 311 309 307 305 305 304 303 303 302 302 301 300 299 297 297 297 297 295 293 292 289 287 287 284 284 284 282 282 282 283 282 283 284 285 285 284 284 284 284 285 285 284 289 291 285 287 291 291 291 292 292 292 293 293 293 294 294 295 296 296 297 298 298 298 299 300 301 301 301 301
306 306 305 306 308 309 309 311 312 312 312 312 312 313 313 312 309 308 306 305 304 303 303 302 301 300 299 299 298 297 297 297 295 294 294 292 291 288 285 282 283 281 281 282 281 283 284 284 284 284 284 284 284 284 284 284 286 288 290 286 281 289 290 291 292 293 294 294 294 294 295 295 295 296 296 297 297 297 297 298 299 299 299 300 300
304 303 303 305 306 306 306 307 309 310 310 310 311 310 310 309 307 307 307 306 305 302 302 302 301 300 300 299 297 297 297 297 296 295 294 293 292 289 288 287 284 281 281 279 281 281 284 282 283 284 284 284 284 284 285 285 284 289 289 285 281 282 288 290 292 293 293 293 294 294 294 295 295 296 296 296 296 296 296 298 297 298 298 298 299
303 302 302 303 304 305 305 305 306 306 307 308 309 309 309 308 307 305 304 303 302 302 302 301 301 301 300 298 298 298 297 297 296 295 294 292 291 289 289 289 288 286 280 279 280 280 282 283 282 283 284 284 284 284 283 283 284 287 286 285 283 281 285 290 292 293 293 293 293 294 294 294 294 294 294 295 295 296 296 296 296 297 297 297 297
302 301 301 301 301 301 304 304 303 303 304 305 306 307 306 305 306 306 306 304 302 301 301 301 300 299 298 297 297 297 297 296 296 294 293 293 290 289 289 289 290 288 285 282 281 282 281 282 283 282 283 284 284 283 283 283 286 287 284 284 283 282 286 289 291 292 292 293 293 293 293 293 294 294 294 294 295 295 296 296 296 296 296 297 298
300 299 299 297 297 297 299 300 299 300 300 301 302 304 305 305 303 302 302 301 301 300 299 298 299 297 296 296 295 296 295 295 294 293 291 291 290 289 288 288 287 289 286 284 282 282 283 281 282 283 283 283 284 283 283 283 285 286 284 283 283 285 286 287 289 290 291 291 292 292 293 293 293 293 294 294 294 295 295 295 295 295 295 296 297
299 298 298 296 295 296 296 297 298 297 296 297 297 299 299 301 300 299 299 299 298 298 297 295 297 295 295 295 294 295 294 292 292 291 290 289 289 288 288 287 287 287 287 285 285 282 283 282 282 282 283 283 283 283 283 283 284 287 284 283 283 285 284 283 286 288 289 290 291 292 292 292 292 292 293 293 293 294 294 294 294 295 295 296 296
296 295 295 295 295 295 296 296 297 296 296 296 295 295 295 296 296 297 297 296 297 297 296 294 293 293 294 294 294 294 293 291 291 291 290 289 288 288 288 287 287 285 286 285 283 279 280 281 283 282 282 283 282 283 282 282 282 283 285 283 282 282 282 281 281 284 286 288 289 290 291 292 292 292 292 293 293 293 293 294 294 294 294 295 295
293 295 295 294 293 294 294 295 295 295 296 297 295 295 295 295 295 296 296 295 295 295 293 294 292 293 293 293 293 292 290 291 290 289 289 288 287 287 286 286 286 285 285 283 281 281 280 279 281 281 281 283 282 283 282 282 282 282 282 282 282 282 281 281 280 281 285 287 289 290 291 292 292 292 292 292 293 292 293 294 293 294 294 294 293
291 293 294 293 293 293 294 294 295 295 295 295 294 294 295 296 296 295 295 294 295 295 293 294 293 292 292 291 292 291 288 288 288 288 287 287 287 287 286 286 285 284 283 283 282 280 280 279 281 280 281 281 281 281 282 282 282 282 281 281 281 282 282 281 281 281 284 287 289 290 291 291 291 292 292 292 292 292 292 293 292 292 292 292 293
292 291 291 293 293 293 293 293 295 295 294 293 293 293 295 295 296 295 294 293 294 294 294 294 293 291 291 291 291 289 287 287 286 285 285 285 285 286 285 284 285 283 282 281 283 282 280 279 279 280 281 281 281 281 282 282 281 281 281 281 281 280 281 281 281 280 282 286 288 289 289 290 291 291 291 291 291 290 290 291 291 291 290 290 291
292 291 290 290 292 292 294 294 294 294 294 294 293 293 293 293 294 295 294 294 294 294 294 294 292 291 291 291 290 288 287 287 285 284 284 284 284 284 284 283 283 281 281 281 281 281 281 280 279 279 281 280 281 280 281 280 280 280 280 279 280 280 279 280 280 280 283 286 287 287 288 288 289 289 289 289 289 289 289 289 289 289 289 289 288
292 291 292 290 291 292 292 293 294 294 294 293 293 293 293 293 292 293 293 293 293 293 293 293 292 291 291 291 289 287 286 286 285 284 284 284 283 283 282 281 281 281 281 280 281 281 281 280 280 279 279 279 279 279 279 280 280 279 278 278 277 277 278 278 278 279 279 279 278 280 282 284 284 286 287 287 288 288 288 288 288 288 287 287 287
292 291 290 291 290 291 292 292 292 293 293 293 293 293 292 292 292 292 292 291 292 292 292 292 291 291 290 290 288 287 286 287 285 284 283 283 283 282 282 281 281 281 281 281 282 282 282 281 280 280 280 280 280 279 279 279 279 279 278 277 277 277 277 277 277 279 279 280 282 284 284 284 285 284 285 285 286 286 286 286 286 286 285 285 286
291 291 291 291 290 290 291 291 291 292 293 293 292 292 292 292 291 291 291 291 291 291 290 290 290 290 290 289 288 287 287 287 285 284 284 283 283 282 282 282 282 283 282 282 283 282 282 281 281 279 280 279 279 278 277 277 277 277 277 277 276 277 277 277 277 277 278 279 278 278 280 281 281 282 284 284 284 285 285 284 284 284 283 284 285
290 290 290 290 290 289 289 289 289 290 292 292 292 291 291 291 291 291 291 291 290 290 289 289 289 289 288 288 287 287 286 286 286 285 285 285 283 282 282 283 283 284 283 283 283 282 282 281 280 280 279 279 278 278 277 278 278 279 279 277 276 276 276 276 277 278 278 276 277 277 277 278 278 278 278 277 278 281 281 283 283 282 283 285 285
289 289 288 288 289 289 288 288 288 289 290 291 289 291 291 291 290 291 290 290 290 290 289 288 287 287 287 287 286 285 285 285 285 285 286 286 285 284 283 284 284 284 283 283 282 282 281 281 280 279 278 278 278 278 279 279 280 278 277 277 276 276 276 276 277 276 276 277 278 277 277 278 277 277 278 277 278 280 279 278 277 281 283 284 284
288 287 287 288 288 288 288 288 288 288 289 289 289 291 292 292 290 289 289 289 289 289 289 288 287 286 286 286 285 285 285 284 285 286 286 286 286 286 286 286 286 285 284 283 282 282 281 281 281 280 280 279 279 280 280 280 278 278 278 276 276 276 275 274 273 277 278 277 277 274 275 277 276 276 276 277 278 278 278 278 282 282 282 283 283
287 286 286 287 287 287 287 287 287 288 288 288 290 291 292 292 291 289 289 288 288 288 288 287 287 286 285 284 284 284 284 284 284 285 285 286 287 287 287 287 288 288 287 285 283 281 281 280 279 280 280 279 280 280 279 279 278 277 276 276 276 275 275 274 276 275 278 279 276 275 275 276 277 276 275 277 277 277 277 280 281 282 283 283 283
285 286 287 286 286 286 286 286 287 287 287 289 291 291 291 292 292 289 288 287 287 287 287 286 286 285 283 282 282 283 283 284 284 284 284 285 287 288 288 287 287 287 287 287 286 284 283 281 280 280 280 280 280 280 280 279 279 277 277 276 276 276 276 276 276 277 278 278 276 275 274 276 276 274 274 276 276 275 275 278 281 282 282 282 282
286 286 286 286 286 285 286 286 287 287 287 288 290 291 290 291 292 290 287 287 287 287 286 285 284 283 283 282 281 281 282 283 283 283 284 284 285 285 285 284 285 286 286 286 285 285 284 282 281 280 281 281 280 280 280 281 278 277 276 275 277 276 276 276 277 277 278 279 277 276 273 272 274 275 273 273 275 274 274 277 280 280 281 281 281
286 286 285 285 285 285 285 286 286 287 287 289 290 290 290 291 291 291 286 286 286 286 285 284 284 283 282 282 282 282 282 282 283 283 284 284 284 284 284 283 284 283 283 283 283 282 282 282 282 281 281 281 281 280 280 280 280 279 278 277 277 277 276 276 275 277 277 279 277 275 269 273 275 272 272 271 273 272 273 275 277 278 279 279 279
285 284 284 284 284 284 284 285 286 286 286 288 289 290 290 290 291 288 286 285 285 285 284 283 283 282 282 282 282 282 282 282 284 286 285 284 284 283 282 281 281 281 281 284 285 285 283 283 282 282 281 282 283 281 280 279 279 278 278 276 275 273 273 274 275 276 275 276 275 274 272 272 273 269 269 271 271 270 271 270 275 276 277 278 278
283 283 284 284 284 284 284 285 285 286 286 287 288 289 290 290 290 287 285 285 284 284 283 282 282 282 282 282 282 282 282 282 285 287 287 286 283 282 281 280 280 280 280 283 285 286 286 285 285 285 285 285 285 285 285 285 282 280 277 275 273 275 275 273 274 274 271 272 273 273 272 269 269 268 267 268 268 268 268 269 269 273 275 276 276
282 282 282 282 282 283 284 285 285 285 285 285 287 289 289 290 289 286 285 284 284 283 282 281 281 281 282 283 283 282 282 283 287 288 288 285 283 282 280 279 279 279 279 280 282 283 285 285 285 285 285 285 285 284 284 284 284 282 277 274 276 276 274 275 272 271 272 272 270 273 268 266 265 266 264 265 265 265 267 268 269 270 272 272 274
281 279 280 281 279 280 282 285 285 285 284 284 287 288 289 290 288 285 285 284 283 281 280 280 281 281 281 283 283 283 283 285 288 288 287 284 282 281 281 280 279 278 279 279 279 279 280 280 280 280 280 282 280 279 281 282 281 279 277 274 272 273 272 272 271 271 270 271 270 271 265 261 262 262 263 260 258 262 266 266 267 267 268 268 269
Wind_Speed
7 6 6 6 6 5 5 5 5 5 4 5 5 6 5 6 6 6 6 6 5 5 5 5 5 5 5 5 5 5 5 6 5 6 5 5 6 9 13 6 10 12 17 18 17 16 17 16 16 13 12 12 11 12 13 12 12 12 13 13 13 14 13 12 13 13 13 13 13 13 13 13 13 13 14 13 14 14 14 13 14 14 14 14 15
7 6 7 7 6 5 5 6 6 5 5 5 5 5 6 6 6 6 6 6 5 4 5 5 5 4 4 5 4 5 5 6 6 5 5 4 5 6 13 13 8 16 15 14 12 14 16 15 13 10 13 11 12 12 12 12 11 11 11 12 12 12 12 12 12 12 12 12 12 12 12 12 12 12 13 12 13 13 12 12 13 13 13 14 14
7 7 6 6 6 7 6 6 6 6 5 5 5 6 5 6 6 7 6 6 5 4 5 6 5 5 4 5 5 5 5 5 6 5 4 4 4 5 7 11 12 9 8 13 13 14 14 13 12 12 10 11 11 11 11 11 12 11 11 11 10 11 11 11 11 11 11 11 11 11 11 11 11 12 12 11 11 11 10 13 12 12 13 13 13
8 7 7 7 7 7 6 7 7 6 5 5 5 5 6 5 5 5 5 6 6 4 3 6 5 5 4 5 3 5 5 4 7 5 4 4 4 4 4 6 10 11 12 7 15 12 13 13 12 11 11 11 10 10 10 10 11 11 11 11 9 9 10 10 10 10 11 11 11 10 10 10 10 11 10 11 11 10 10 11 12 12 12 11 13
8 9 8 7 7 7 6 7 7 6 5 6 6 5 6 6 5 5 5 6 6 5 4 4 5 4 4 4 5 5 4 4 6 5 5 4 4 4 4 5 4 10 12 13 12 7 11 10 10 9 9 8 9 8 7 6 8 7 8 10 10 9 9 9 9 9 9 10 10 9 10 9 9 9 10 9 10 9 10 10 11 11 11 11 12
9 9 8 8 7 7 8 7 7 5 5 6 7 6 6 7 6 6 5 7 6 5 6 5 3 3 4 3 5 5 5 5 4 5 4 5 4 5 4 4 5 5 7 12 13 15 5 10 8 9 10 11 8 6 8 6 7 7 7 6 8 7 8 8 8 9 9 9 9 9 9 9 8 8 8 9 8 9 9 9 10 10 10 11 11
11 10 10 9 9 8 8 8 8 7 7 6 7 5 7 8 7 7 5 5 5 5 5 6 6 5 4 3 4 4 5 5 3 4 5 4 4 5 4 4 5 5 6 5 9 12 15 8 5 6 5 8 12 13 10 7 7 7 5 7 7 7 7 7 8 9 9 8 8 8 8 8 8 8 8 7 7 8 7 8 8 9 9 10 11
10 10 10 10 10 9 9 8 10 8 7 8 7 7 6 7 6 8 8 5 6 5 4 6 5 5 3 4 4 4 5 4 5 3 4 5 4 4 4 4 4 5 5 5 5 7 12 11 13 9 3 9 7 7 6 9 8 6 7 6 6 6 6 7 8 9 8 8 7 7 7 6 7 7 7 7 7 8 8 9 8 9 9 10 11
10 11 9 10 9 9 9 10 9 9 9 9 9 8 8 7 6 5 7 7 7 7 5 5 5 4 3 3 3 5 4 4 4 4 3 5 4 4 5 4 4 5 4 5 5 5 7 11 11 11 13 9 6 5 4 6 8 9 8 7 6 6 5 7 8 7 7 7 6 6 5 6 5 6 6 6 7 7 8 8 8 8 9 10 11
11 11 10 10 10 10 9 10 9 9 9 9 9 9 9 9 8 5 6 7 7 8 7 5 5 5 3 2 1 2 4 5 3 3 4 5 4 5 4 4 5 4 4 4 4 4 3 6 8 10 12 11 5 4 4 7 6 8 8 8 8 7 5 5 7 6 6 5 5 5 4 4 4 5 6 6 7 6 9 8 9 10 9 11 13
11 11 10 9 9 9 9 11 10 10 9 9 8 8 8 8 10 7 5 5 7 7 8 6 5 4 4 2 2 1 1 1 4 4 4 4 5 4 3 4 4 3 4 4 3 3 3 3 4 5 5 11 10 10 10 2 8 8 8 7 7 6 6 4 6 6 5 4 4 3 3 4 5 5 6 7 7 7 9 9 10 11 11 11 12
12 12 11 10 9 9 9 9 10 10 11 10 9 9 11 11 9 10 9 5 4 6 8 8 6 6 4 4 2 1 0 0 1 3 4 4 5 5 6 3 5 4 3 3 4 4 3 3 3 4 3 6 9 10 10 9 2 7 8 8 7 8 6 5 4 4 4 3 3 2 3 3 4 5 6 6 7 8 9 9 10 11 11 12 13
10 11 12 10 10 9 10 10 10 10 11 12 12 12 12 12 11 10 12 9 6 7 8 9 10 5 4 3 2 2 1 0 1 1 3 5 6 6 6 6 5 5 4 4 4 4 4 4 3 3 3 3 5 7 7 8 9 4 3 6 8 8 9 7 5 4 3 2 2 2 2 2 3 4 5 6 7 7 8 9 10 11 12 13 13
9 9 10 11 10 9 10 11 11 11 11 11 13 13 14 12 10 7 5 11 9 10 9 10 3 7 7 2 1 1 1 1 2 3 3 3 3 5 6 7 7 6 5 5 4 4 4 4 3 3 3 3 3 2 2 3 6 7 4 3 5 7 6 8 6 4 2 2 1 0 1 2 3 5 5 6 8 8 9 10 11 12 13 13 14
11 10 10 11 12 10 10 9 11 10 9 9 9 11 10 11 14 13 10 5 6 8 12 11 8 6 5 6 2 3 2 2 3 4 4 3 3 3 4 5 7 6 7 6 6 5 4 4 4 4 4 3 3 2 1 3 3 6 7 5 3 6 8 7 7 6 3 1 2 1 1 2 4 4 6 7 8 9 10 11 12 12 13 14 15
12 12 10 10 10 12 10 9 10 11 11 11 12 12 12 11 11 11 13 12 7 9 10 10 8 13 7 7 4 2 1 10 7 3 4 5 5 6 4 5 5 4 5 7 7 6 5 5 5 5 4 4 3 3 2 1 2 4 5 6 4 3 4 6 6 6 4 4 2 2 2 3 4 5 6 8 9 10 11 12 12 13 13 14 15
10 12 13 12 10 9 10 12 12 12 12 12 12 14 14 14 15 13 14 14 11 9 11 12 10 10 9 7 2 2 9 1 8 4 4 4 6 5 5 5 5 5 6 6 6 6 6 5 5 4 4 4 4 3 2 1 2 1 2 3 3 3 2 3 4 4 4 3 3 3 3 4 5 6 7 8 9 11 11 12 13 14 14 15 16
10 10 10 11 13 12 9 8 11 12 13 14 13 11 13 13 15 14 15 12 14 12 12 12 9 11 8 1 3 7 8 5 7 7 2 5 3 6 7 7 5 6 6 6 7 7 6 7 5 5 4 4 4 3 3 3 2 2 3 2 2 3 2 2 2 3 3 2 3 4 4 5 5 7 8 9 10 11 12 13 14 14 15 16 16
9 9 9 9 9 9 12 12 10 9 11 10 11 13 12 13 11 12 13 12 10 12 14 12 8 9 9 7 1 1 3 10 7 6 2 5 5 6 7 6 6 6 7 6 7 7 6 6 6 5 5 4 5 4 4 4 4 4 4 4 5 3 2 1 1 1 2 3 3 4 5 6 7 8 9 10 11 12 13 14 14 15 15 16 17
9 9 10 9 8 10 9 8 12 14 11 11 13 12 10 10 13 15 14 13 15 15 14 12 16 14 13 10 7 3 5 1 4 11 5 6 9 4 4 6 6 8 8 8 8 8 7 6 6 6 6 5 5 5 5 4 4 3 2 7 7 6 4 4 2 2 2 4 4 5 6 7 8 9 10 11 12 12 13 14 15 15 16 16 18
8 9 9 10 10 9 8 10 9 9 11 14 14 14 17 16 14 13 13 12 11 12 11 14 15 13 11 11 8 6 4 4 2 2 5 6 6 10 11 4 5 8 8 7 7 8 9 9 8 8 6 6 6 5 5 5 5 4 4 7 9 8 8 7 7 6 5 5 5 6 7 8 9 10 11 12 12 13 13 14 15 15 16 17 19
9 9 9 9 9 9 11 11 12 12 10 11 9 9 11 13 15 15 15 15 13 13 14 12 13 13 13 12 12 7 2 3 4 6 4 5 8 11 12 13 13 10 5 8 8 8 7 7 7 7 7 6 6 6 5 6 5 4 5 8 9 9 9 9 8 7 7 7 6 6 7 9 10 12 12 13 13 13 14 14 15 16 16 17 19
8 9 10 10 10 9 9 9 10 11 11 12 15 15 14 14 13 14 14 16 13 13 12 10 10 11 10 10 12 13 15 13 13 11 11 9 5 6 8 10 12 5 10 8 7 7 7 7 9 8 7 6 6 5 6 6 6 6 9 9 8 9 8 8 7 7 7 7 7 8 9 10 11 12 13 13 14 14 14 15 16 16 17 18 19
7 8 9 7 8 8 8 9 10 10 11 10 11 12 12 12 13 15 14 14 12 11 12 13 12 11 11 11 12 11 11 11 11 11 12 11 11 7 8 5 3 6 1 6 4 7 7 8 8 8 8 7 7 7 6 6 6 10 8 10 10 11 10 9 9 9 9 8 8 9 11 11 12 12 13 13 14 15 15 16 16 17 18 19 20
9 9 9 8 8 9 8 8 8 9 9 10 11 10 9 8 9 11 13 15 15 14 13 15 16 15 16 13 11 11 12 10 6 7 6 3 7 6 3 5 6 7 3 6 7 4 6 8 8 8 8 8 7 7 7 6 6 9 10 7 12 10 10 9 9 9 9 9 10 11 12 12 13 13 13 13 14 15 16 16 17 18 18 19 20
10 11 9 9 8 9 9 10 9 8 7 8 10 11 12 12 12 12 14 14 13 17 17 17 15 15 11 10 11 11 11 9 8 7 9 9 7 9 7 2 0 5 2 5 3 4 7 8 7 7 7 8 7 7 7 7 6 9 11 7 8 11 10 9 10 10 11 11 12 13 13 13 13 13 14 14 15 15 16 17 18 18 19 19 20
9 8 7 8 9 9 9 10 11 10 7 7 7 9 10 10 11 12 10 10 11 12 13 14 14 15 14 11 11 10 10 9 8 9 9 11 11 10 11 8 1 1 4 3 4 11 6 5 7 7 7 7 7 7 7 6 7 9 11 7 6 10 11 11 11 12 12 12 12 13 14 14 14 14 14 15 15 16 17 17 18 18 19 20 20
7 6 7 8 9 9 9 10 10 11 10 8 8 8 8 8 7 9 14 11 12 13 13 13 15 15 13 12 9 10 10 9 9 8 9 9 8 9 10 11 11 7 5 5 6 9 6 6 4 8 8 9 8 8 7 8 6 10 11 6 6 6 10 12 13 13 13 12 12 13 13 14 14 15 15 15 16 16 17 18 18 19 20 21 21
7 7 8 8 8 9 9 10 10 9 10 10 9 9 9 9 9 9 9 7 8 11 12 12 13 12 11 13 12 11 10 9 8 9 9 8 8 9 11 13 11 10 7 9 10 10 8 9 7 8 10 8 8 7 8 8 8 9 6 6 6 5 8 12 13 13 12 12 12 12 13 14 14 15 15 16 16 17 17 17 18 19 20 21 22
8 7 7 8 8 8 9 9 9 9 9 8 8 8 7 7 9 11 12 11 11 10 10 12 13 11 11 10 9 10 9 9 10 10 9 11 9 10 11 10 9 12 10 11 11 9 5 6 6 4 7 9 7 7 7 8 9 10 6 6 6 6 9 11 13 13 12 11 12 12 13 14 14 15 15 16 16 17 18 18 19 20 21 23 24
7 7 7 7 7 8 8 8 8 9 7 8 7 7 8 9 8 8 7 7 9 10 10 10 11 10 10 12 10 10 8 10 9 8 8 9 9 9 10 9 8 9 9 7 6 3 6 7 6 2 5 7 6 6 5 5 6 9 7 6 6 7 9 8 11 11 11 11 11 12 13 14 15 15 16 17 17 18 18 19 20 21 22 24 25
8 8 8 8 8 8 8 8 8 8 8 7 7 7 6 8 7 8 8 9 10 11 10 8 8 8 10 11 10 10 9 7 8 9 9 9 9 9 9 8 7 5 7 7 7 4 2 4 5 3 3 7 7 7 6 4 4 9 6 6 5 5 5 4 7 10 11 11 12 13 14 15 16 16 17 17 18 19 19 20 21 22 24 25 26
7 8 8 9 9 9 9 9 9 8 8 8 7 6 6 7 7 7 7 8 10 9 8 8 7 8 9 11 10 10 7 8 9 8 9 10 9 9 8 8 9 6 8 6 7 4 0 2 4 6 3 5 6 6 6 5 4 5 4 4 3 3 3 4 4 7 10 11 12 13 14 15 16 17 17 17 18 19 19 21 22 22 23 24 25
7 8 9 8 8 8 8 9 8 8 8 8 8 8 9 8 8 7 7 8 9 9 7 9 8 8 9 11 11 9 9 11 9 9 9 9 9 9 9 10 10 9 8 8 5 6 6 2 3 3 3 4 5 4 7 6 5 3 4 3 2 3 4 4 4 5 9 10 11 13 14 16 17 17 17 17 18 18 19 21 22 23 23 23 24
6 7 8 8 8 8 9 8 8 9 9 8 8 9 10 10 10 8 8 9 10 10 10 10 10 9 9 10 10 9 6 8 9 9 7 9 9 11 11 8 9 9 8 6 6 4 9 4 4 5 5 5 5 5 5 3 2 2 3 3 4 3 3 4 5 5 7 10 12 14 16 16 17 18 18 18 18 19 20 21 21 22 23 23 24
8 7 6 7 7 8 9 8 9 9 9 8 7 8 10 10 10 10 9 9 9 10 10 10 9 9 11 10 9 9 9 9 8 7 7 7 8 9 9 6 6 8 7 5 8 8 6 9 4 7 5 6 2 2 4 2 2 2 3 2 1 3 3 3 4 5 6 10 13 14 16 16 17 17 17 17 18 19 20 21 21 21 22 23 24
8 7 7 6 7 8 9 9 9 9 9 9 9 9 9 8 9 10 9 9 9 10 10 10 10 10 10 11 10 9 9 10 7 8 8 9 7 7 7 6 6 6 4 4 4 7 9 9 6 2 3 2 2 3 4 5 1 1 1 3 3 2 2 3 3 4 7 11 12 14 15 15 15 15 16 17 18 18 18 18 19 20 22 24 24
8 8 9 8 8 9 9 9 9 9 8 9 10 10 10 9 9 9 9 9 9 9 9 8 8 9 10 10 8 9 10 12 11 9 8 9 8 8 8 7 7 7 7 5 5 6 8 8 9 5 3 5 3 2 3 4 3 2 2 2 1 2 3 4 4 3 2 2 3 5 7 8 10 13 14 14 15 15 16 19 20 21 21 22 23
9 9 8 9 8 8 9 8 8 9 8 8 9 9 9 8 9 9 8 8 8 8 9 9 8 8 8 8 8 9 11 10 11 11 10 9 9 9 9 8 7 9 8 7 7 7 6 6 2 2 5 1 3 3 1 3 3 3 3 1 2 2 3 3 4 3 2 3 5 7 7 7 8 6 8 11 15 17 18 17 18 19 20 21 22
10 9 10 9 9 8 9 8 8 8 8 8 8 8 8 8 9 9 8 9 9 8 7 7 7 8 8 8 9 10 11 11 11 10 12 11 8 8 7 8 9 9 8 7 7 7 7 6 5 5 3 4 2 2 3 3 1 2 4 4 4 3 2 1 2 3 2 1 2 4 3 4 5 7 9 9 11 15 16 15 15 17 20 20 21
9 8 8 8 8 8 7 7 7 7 8 8 7 8 8 8 8 8 9 9 9 8 7 7 7 7 7 7 8 9 10 11 13 13 12 12 12 10 7 9 9 9 8 7 7 7 6 6 4 3 5 4 4 5 4 5 6 6 3 5 3 3 2 2 4 4 2 0 0 1 4 3 4 5 5 4 5 6 7 11 10 14 16 21 23
8 8 7 8 9 9 9 8 7 7 7 6 8 13 11 9 8 8 7 8 8 8 8 8 7 7 8 8 8 11 12 13 14 15 15 15 14 13 12 11 11 9 8 7 6 6 6 6 6 6 6 6 6 7 6 5 4 2 3 3 3 3 1 1 3 1 1 1 2 3 4 4 3 4 3 4 4 3 3 4 5 10 18 23 24
8 7 7 9 9 8 9 8 8 8 7 6 11 10 12 13 9 8 8 8 8 8 8 8 8 8 6 7 6 9 11 12 13 17 17 17 16 16 15 14 12 11 9 8 8 8 7 7 5 5 6 6 6 5 5 4 3 4 3 3 4 2 1 1 3 3 2 2 2 2 4 3 2 3 3 4 4 3 3 4 15 20 21 22 23
7 5 8 9 8 8 7 7 8 8 7 9 11 11 13 13 12 8 7 7 7 8 8 9 8 8 8 7 7 7 9 11 11 12 13 16 18 19 18 16 15 11 11 12 10 7 6 7 6 6 6 6 6 5 4 4 3 3 3 3 2 2 1 0 3 3 2 1 3 4 5 2 1 3 2 3 1 1 3 11 19 20 22 22 22
6 9 10 8 9 7 8 8 8 8 7 9 10 11 14 12 11 10 6 7 7 8 8 8 8 8 8 7 7 7 8 15 12 11 12 12 14 18 17 15 13 11 9 6 5 8 8 6 7 6 6 5 6 5 5 4 4 4 2 2 2 2 2 2 3 1 4 3 3 4 4 3 1 2 1 3 1 2 5 9 17 21 22 22 22
9 9 8 9 8 9 9 9 8 7 7 9 10 10 14 14 13 11 7 7 7 8 8 8 8 9 9 10 9 9 9 11 11 12 12 12 10 11 10 8 7 9 10 11 10 9 7 7 7 7 5 6 5 4 4 5 4 3 3 3 3 3 2 3 2 3 4 2 3 5 6 3 2 2 2 1 2 4 5 11 19 18 19 20 21
10 10 10 10 10 9 8 8 7 8 7 9 10 12 13 14 14 12 7 6 6 6 7 8 8 9 9 8 9 10 11 12 11 13 12 11 10 10 10 8 7 6 6 7 6 6 5 4 5 5 5 5 4 4 4 3 5 4 5 4 4 3 2 0 1 2 3 1 2 4 5 5 3 4 2 3 5 5 5 9 14 15 18 19 20
6 5 6 6 8 8 8 8 7 8 7 10 11 13 14 14 14 9 7 7 7 6 7 7 7 7 8 9 9 10 11 11 14 20 15 11 11 12 11 9 8 6 4 4 7 6 5 4 4 5 5 5 5 4 4 4 3 3 3 2 3 3 3 1 1 1 1 3 7 2 3 4 3 6 6 3 4 7 5 3 10 16 17 19 19
7 8 8 8 7 8 7 7 8 7 6 8 12 13 13 16 12 7 7 6 6 6 6 6 6 6 7 8 8 9 10 10 16 19 20 17 11 12 11 9 7 7 5 5 8 9 9 8 8 8 7 8 8 8 8 9 8 5 5 4 2 4 3 2 3 2 1 2 3 4 2 5 4 6 8 5 5 7 2 3 5 13 17 17 18
8 8 6 6 5 6 7 7 8 8 6 6 11 12 13 15 12 7 6 6 4 4 3 4 5 6 7 11 9 9 10 11 17 18 19 16 12 11 11 11 9 8 6 4 4 5 9 9 9 9 9 9 9 6 5 3 7 6 5 4 2 4 2 1 3 0 2 3 3 4 3 3 3 5 7 7 4 1 4 5 7 7 12 11 17
5 4 4 6 4 4 4 6 7 7 4 4 9 10 12 13 10 6 6 5 5 4 4 3 3 5 7 9 13 13 12 15 20 18 17 13 11 11 11 11 9 9 7 7 7 7 5 5 4 4 3 5 4 6 8 13 11 8 5 4 3 4 4 2 1 1 2 2 2 3 3 3 5 6 4 7 4 2 4 4 6 5 5 4 7
Wind_Direction
168 169 160 170 166 167 166 168 166 167 146 135 133 128 120 122 117 113 110 105 101 98 98 90 93 92 98 93 91 83 76 70 58 51 45 37 32 19 24 53 100 117 120 118 118 115 116 112 114 113 116 105 103 104 102 102 101 99 95 91 91 88 85 82 78 78 78 76 76 76 74 70 67 67 66 63 60 58 55 49 51 46 44 42 43
171 167 168 172 171 167 168 171 173 172 155 145 148 136 136 127 121 122 119 118 109 117 108 102 92 93 91 97 81 89 87 82 70 56 50 41 32 28 27 25 98 128 127 128 119 123 119 120 115 120 121 116 112 108 106 103 94 87 89 93 89 89 89 85 83 84 82 77 76 76 72 70 66 65 67 64 61 58 55 47 47 44 42 41 42
170 171 174 170 171 171 175 171 177 178 166 148 149 144 140 139 143 139 134 125 121 125 117 109 106 94 92 88 90 85 84 90 82 69 55 43 43 35 23 24 28 33 116 124 117 119 119 125 126 128 118 122 118 116 116 110 108 101 95 91 93 89 88 83 86 85 85 83 79 77 75 72 68 65 62 62 61 57 42 47 43 41 41 36 34
173 174 174 173 176 177 174 174 185 177 165 151 148 144 137 129 123 123 124 118 117 104 100 115 107 106 99 93 84 85 77 86 88 73 66 59 42 46 27 25 20 29 23 71 127 124 131 130 131 131 131 128 121 122 124 124 117 116 110 99 87 86 84 87 83 81 81 81 80 78 73 69 67 68 63 59 52 48 40 42 42 39 39 29 30
179 177 176 178 177 174 177 186 183 172 162 155 143 138 124 120 109 113 110 109 110 99 84 86 108 108 99 94 100 92 81 77 94 83 82 59 55 40 40 30 28 32 30 31 36 112 145 135 132 131 122 121 118 118 106 110 115 115 114 113 113 109 101 93 86 82 81 79 78 78 74 67 63 64 62 59 61 36 38 34 36 35 28 26 29
176 180 177 177 179 182 181 183 181 165 156 154 149 150 138 134 138 129 135 134 132 133 125 106 86 91 95 105 90 101 100 85 79 103 93 78 63 58 32 33 40 28 34 31 29 20 41 147 145 149 145 136 133 132 133 116 100 105 106 102 100 98 94 96 93 86 79 77 71 69 68 62 57 50 49 49 41 49 28 34 30 27 22 20 20
182 178 181 179 181 185 190 188 175 163 161 167 152 153 146 148 151 138 140 131 131 139 135 133 135 126 126 120 112 108 98 109 100 102 102 97 79 72 37 59 40 44 37 37 32 26 24 33 146 161 146 146 148 143 144 130 109 113 101 106 109 107 99 94 89 84 79 73 69 64 59 60 50 41 44 49 24 47 22 24 25 16 15 12 2
185 183 182 184 181 186 191 186 179 169 169 165 155 157 157 150 165 151 144 149 139 130 130 133 132 130 127 117 124 113 116 119 117 104 107 104 95 80 72 64 56 57 48 51 41 29 24 30 36 34 143 177 175 166 153 141 144 124 125 113 108 102 94 90 85 84 79 73 66 62 55 46 48 35 30 40 16 18 21 13 11 5 7 1 352
189 187 189 190 186 186 188 187 180 177 171 170 170 164 157 156 165 173 154 151 151 140 133 133 130 120 116 119 130 131 125 133 131 132 112 104 110 99 94 73 75 61 65 56 55 32 26 31 35 35 24 11 167 146 130 146 163 150 133 128 117 112 102 83 82 80 83 81 73 69 61 39 43 32 15 25 24 4 5 8 357 355 2 346 352
192 191 194 194 191 185 185 184 181 181 176 174 176 167 164 161 161 170 160 151 156 152 146 134 127 120 97 80 70 101 136 134 137 135 133 130 123 123 117 106 84 87 77 82 66 60 48 27 30 32 26 22 53 137 181 181 158 146 152 147 138 124 120 111 104 103 97 90 77 66 52 46 34 26 9 11 13 4 346 355 347 345 356 338 341
194 194 195 192 194 193 185 181 181 181 177 179 173 168 163 166 162 158 154 163 156 151 141 134 122 109 95 40 28 25 33 128 136 139 142 140 140 134 123 113 108 105 108 99 105 91 70 44 53 40 22 29 42 52 32 354 166 163 167 163 146 135 132 128 119 115 111 103 90 71 56 40 27 14 7 360 356 353 351 346 347 339 336 337 334
196 194 198 193 192 189 187 183 185 181 179 178 176 174 170 165 170 160 153 131 126 138 137 126 102 86 76 56 35 24 10 51 152 156 150 158 150 146 143 150 126 133 130 132 120 108 90 85 69 55 43 27 37 38 27 14 50 187 179 173 173 162 160 143 136 122 114 103 92 71 55 34 16 7 355 354 348 346 343 342 336 330 328 327 328
205 196 196 196 198 190 181 184 186 187 187 185 178 180 179 177 170 167 159 150 151 156 157 139 128 83 53 52 38 6 13 357 220 210 192 179 169 158 158 146 154 150 161 147 128 118 121 104 89 77 62 50 36 30 22 9 15 92 152 184 172 167 173 161 151 127 110 111 109 86 41 14 2 354 346 341 340 337 335 330 327 326 323 323 323
201 206 202 195 201 199 188 183 184 190 193 190 183 181 179 175 159 155 180 163 164 171 167 137 143 161 152 154 13 353 2 341 238 241 242 223 201 170 172 165 169 166 163 140 139 139 137 127 117 104 92 89 69 45 20 15 11 47 83 133 170 170 162 162 150 136 148 149 124 101 5 355 347 338 339 336 331 332 330 326 324 321 319 319 318
200 203 207 203 199 200 197 185 186 184 187 193 188 181 187 182 172 169 164 182 158 176 177 183 151 132 104 97 215 168 245 263 256 247 222 237 245 209 196 184 179 173 164 148 151 154 147 152 142 137 143 127 125 105 73 39 44 29 42 53 154 178 175 170 163 152 174 173 202 248 311 327 329 333 329 329 330 328 326 324 321 320 318 316 315
199 199 205 208 207 199 193 191 191 185 188 189 188 190 180 184 190 188 165 163 172 188 200 196 157 138 157 187 160 166 296 239 201 227 193 209 206 212 206 202 192 182 161 160 168 159 165 161 156 163 158 160 152 142 122 104 68 64 44 24 32 138 175 183 179 167 181 206 212 239 275 305 317 321 322 323 324 323 322 320 318 317 317 316 314
202 201 198 204 206 211 202 195 191 192 193 194 194 195 187 185 184 185 183 174 176 183 197 204 199 200 144 124 102 190 219 148 143 234 183 221 223 215 216 209 200 194 186 181 166 168 164 166 168 168 171 167 166 163 150 137 115 93 56 37 30 72 119 154 171 171 183 211 254 270 281 297 307 317 317 318 318 318 317 316 315 316 314 315 313
203 205 209 203 200 201 203 207 203 197 196 194 193 192 193 192 192 188 190 190 179 172 191 210 209 220 226 224 137 176 175 174 133 225 140 224 220 214 215 215 203 200 211 187 176 176 172 170 171 175 179 176 175 170 173 178 174 163 130 130 106 100 101 138 177 180 188 211 260 278 292 301 309 311 310 310 312 311 311 311 313 313 313 312 313
211 208 208 213 212 205 201 194 202 208 197 196 198 196 194 195 188 193 194 182 167 183 191 192 202 242 239 240 215 62 133 140 196 84 246 234 226 216 227 218 212 211 210 204 187 176 181 171 174 177 183 179 177 181 183 190 179 186 175 191 162 146 137 110 144 219 235 257 270 283 293 300 305 304 303 306 306 307 309 309 310 311 312 311 310
213 213 213 213 216 213 213 220 204 195 197 207 200 197 192 198 195 196 192 191 187 186 187 181 190 213 213 219 225 139 186 224 144 179 154 167 218 240 267 226 220 222 208 203 196 184 176 181 176 183 182 186 183 186 190 188 189 196 203 194 177 175 175 177 189 223 276 281 282 289 296 301 304 303 302 302 303 306 307 306 308 309 310 310 308
218 215 215 218 220 224 219 214 217 226 209 205 203 196 195 190 192 197 201 201 198 199 184 193 199 209 184 218 214 202 174 209 157 198 155 168 226 196 212 194 240 232 219 211 201 189 186 183 182 180 182 184 187 191 193 187 186 191 210 211 196 192 194 196 202 204 218 242 268 284 294 300 300 301 300 301 303 304 303 303 305 307 309 308 307
223 223 218 216 215 219 226 226 222 216 208 214 210 201 198 196 194 195 196 197 202 201 201 200 204 209 198 197 198 185 122 188 210 203 260 222 202 200 202 187 205 221 193 219 204 201 189 182 180 183 185 184 188 193 195 192 189 191 208 213 207 204 204 206 205 209 218 235 247 264 280 284 290 294 298 301 303 302 301 303 305 308 307 307 306
217 223 223 220 222 223 223 226 226 221 214 212 202 197 198 196 195 197 203 202 202 204 208 208 205 213 208 198 200 193 195 195 201 198 197 197 198 214 187 194 206 203 219 208 206 206 197 186 185 185 185 187 187 191 195 198 196 197 199 208 208 208 209 216 219 222 233 243 250 261 269 278 286 292 297 300 300 301 303 305 307 307 307 307 308
221 225 224 216 218 222 227 236 233 227 221 214 215 209 201 197 194 195 197 202 205 204 206 209 203 206 213 211 210 207 215 215 210 198 198 208 191 180 178 168 222 228 124 190 224 211 208 200 194 182 186 185 190 191 194 195 206 203 198 208 209 212 214 216 222 231 240 248 255 263 270 277 285 291 293 296 299 301 303 305 307 307 308 309 308
222 223 223 214 221 227 227 232 240 239 230 214 213 203 193 191 195 199 201 197 200 201 208 213 209 206 211 210 205 207 215 217 185 190 195 122 158 134 189 174 186 188 193 169 206 222 220 214 192 193 183 189 189 187 192 197 203 207 197 210 211 215 220 225 235 245 254 258 263 265 271 278 283 289 293 295 296 299 303 305 306 307 308 308 309
215 221 215 216 220 229 232 234 243 253 247 238 222 208 198 194 195 204 212 210 200 202 208 213 215 217 213 208 211 210 213 201 184 162 172 160 170 177 151 168 31 192 111 199 188 174 239 222 209 192 186 187 191 188 191 196 201 208 202 196 217 217 220 226 237 248 253 259 263 267 272 278 283 288 291 295 298 301 303 303 303 305 307 308 308
219 219 205 211 218 219 225 231 233 239 244 237 232 225 213 202 192 198 213 215 213 208 213 211 211 211 212 210 212 211 211 201 183 192 178 189 185 170 152 154 134 175 210 215 231 218 212 199 201 201 191 187 190 190 193 196 201 203 206 197 209 219 222 229 238 245 254 260 264 267 273 280 285 290 293 297 299 301 302 301 302 305 305 304 303
220 205 210 206 213 215 216 225 230 232 231 229 222 216 214 210 213 212 208 200 209 209 212 211 216 215 215 216 211 215 210 202 198 196 194 194 185 162 170 170 163 194 192 218 216 240 198 188 202 205 191 191 193 191 184 187 198 205 206 201 204 215 222 227 236 247 256 262 267 271 276 284 289 293 296 297 297 298 298 299 299 298 296 295 297
216 204 208 208 212 213 215 218 222 227 231 229 223 219 215 208 202 208 226 219 213 211 209 207 213 211 214 210 210 210 209 207 202 204 202 196 191 182 184 186 188 179 175 207 221 215 214 199 186 215 195 191 190 187 185 196 195 191 201 203 208 210 220 228 240 252 261 268 272 275 281 288 293 296 296 296 296 296 295 295 293 294 294 295 299
206 206 203 207 210 212 218 220 219 220 228 234 232 226 218 228 223 216 211 201 209 214 213 211 212 208 212 211 210 213 207 204 207 203 201 200 191 190 195 200 185 185 183 191 220 200 201 201 204 178 186 197 192 190 192 198 190 188 193 202 207 215 221 230 243 253 262 269 274 280 285 288 291 293 294 294 294 293 293 294 296 297 298 298 300
205 201 204 206 205 210 215 222 218 220 221 231 234 235 222 218 212 219 219 214 214 216 214 208 212 202 205 210 208 215 202 207 204 198 200 197 200 193 199 197 202 202 181 191 207 235 163 195 203 121 163 196 191 191 199 197 189 189 195 200 209 214 217 235 244 255 265 270 274 279 283 289 292 293 291 291 291 291 293 297 298 298 299 301 302
207 199 202 201 200 205 210 215 220 220 215 223 228 235 234 232 220 215 212 204 211 214 213 207 206 204 208 210 207 209 204 200 197 197 195 194 187 189 195 199 203 193 159 173 210 216 200 169 165 162 155 175 183 190 205 199 189 198 200 203 204 197 223 245 257 262 265 267 273 278 283 286 288 289 289 289 289 291 293 295 297 300 302 301 302
198 202 200 199 198 203 204 210 214 215 214 215 216 221 227 233 231 221 210 205 212 218 212 211 207 201 207 213 212 211 192 196 205 204 201 196 190 194 192 190 196 185 168 176 182 123 49 25 131 165 156 153 183 200 200 196 192 208 206 210 181 198 228 245 256 262 261 265 270 276 279 283 287 289 289 289 288 290 291 294 301 302 302 304 305
201 208 205 197 196 196 203 209 213 217 219 216 209 207 217 223 226 216 211 206 213 216 205 212 207 207 204 209 213 206 192 205 197 200 200 193 191 191 195 189 195 191 185 160 161 151 158 54 78 69 131 175 180 183 194 188 207 186 209 221 189 205 231 239 249 260 264 267 272 274 279 284 287 288 290 290 291 293 295 299 303 305 306 307 308
221 215 206 201 196 195 201 206 207 214 216 215 208 207 217 219 219 215 209 205 209 210 208 212 205 200 203 209 212 196 182 195 199 203 190 196 193 195 196 191 190 187 191 180 141 142 152 152 145 153 169 187 184 180 193 196 190 164 197 217 220 208 217 231 243 257 270 273 276 281 283 286 287 290 293 296 298 300 302 304 307 308 308 308 308
221 224 214 204 199 198 202 204 206 209 213 215 214 214 217 216 219 217 211 209 210 211 212 213 206 198 205 204 206 189 183 191 189 184 184 183 185 187 182 179 178 179 187 168 157 139 157 144 185 175 180 162 188 108 154 147 160 176 191 228 175 208 226 226 235 259 269 273 278 280 282 285 289 294 299 302 305 308 311 312 313 312 312 312 313
220 214 222 210 206 204 206 204 204 206 208 205 212 218 220 217 218 218 214 212 212 214 213 213 206 202 205 206 198 183 178 182 175 177 172 174 169 162 166 164 158 154 140 130 125 136 146 156 143 136 137 118 126 126 138 155 188 237 240 229 253 251 262 252 247 250 259 273 280 282 285 288 293 299 309 317 320 320 320 319 316 315 314 315 317
215 215 210 208 206 209 209 208 203 204 203 207 213 216 214 212 215 217 216 214 216 217 217 215 208 203 204 205 189 181 178 181 183 170 165 164 157 159 155 149 136 121 111 87 110 122 136 147 153 138 178 167 134 124 140 135 171 242 253 253 272 258 243 273 258 254 254 237 261 276 282 296 311 322 325 320 319 321 320 317 316 317 320 322 320
212 213 212 211 214 208 212 206 205 200 201 208 216 217 216 213 213 214 214 214 214 216 216 212 206 204 202 193 181 180 184 184 172 172 164 157 158 158 153 141 127 121 119 126 116 114 126 132 105 145 144 71 120 165 151 158 189 196 210 228 281 245 222 221 281 299 271 278 268 281 308 319 319 319 319 324 322 319 319 321 321 322 324 323 320
213 210 208 208 213 208 211 207 207 200 200 206 213 215 214 212 211 214 212 211 212 213 215 210 201 200 197 191 183 184 184 180 175 169 163 158 151 144 151 132 131 128 130 121 111 125 134 145 156 163 146 146 112 82 81 95 148 265 203 186 216 253 278 336 216 264 275 211 310 339 327 339 328 314 311 312 307 311 320 323 320 324 323 318 319
210 211 208 205 205 212 213 209 207 202 205 207 205 207 209 213 213 214 214 213 210 211 209 206 200 194 190 184 183 185 184 176 175 169 169 160 152 148 150 136 134 133 131 133 141 143 148 152 141 114 151 150 167 156 167 184 191 202 175 156 188 183 158 265 282 254 246 43 359 319 309 284 286 292 296 297 290 297 304 316 321 314 308 323 323
209 205 204 206 209 207 205 208 206 205 212 210 204 207 207 208 207 212 212 214 210 208 202 197 195 193 187 181 182 178 171 166 166 166 165 166 166 156 152 148 146 141 141 143 149 157 157 168 177 162 169 184 177 183 180 197 182 152 141 157 144 155 152 255 269 243 159 81 352 315 282 278 259 277 294 295 291 310 307 322 287 316 326 324 324
209 204 198 209 213 207 206 203 204 208 210 206 206 201 205 206 204 206 204 208 207 204 199 192 194 190 182 175 166 165 162 161 166 169 170 167 160 149 147 147 144 143 147 156 169 168 173 179 164 173 179 177 190 181 189 176 171 175 177 137 139 146 134 356 321 295 231 125 298 293 290 275 249 292 297 295 293 311 324 306 329 328 326 327 325
211 190 207 215 210 208 206 206 208 208 210 206 201 202 203 199 202 199 201 203 202 203 200 195 191 183 176 167 161 161 165 166 165 167 168 167 160 154 150 152 157 154 163 166 163 164 173 161 168 186 165 182 180 174 181 156 177 136 151 139 154 142 161 169 267 294 262 29 315 301 285 261 240 282 298 274 285 313 333 331 328 328 328 327 326
181 199 212 205 212 207 204 206 211 208 212 205 201 197 208 201 189 195 199 203 198 204 198 194 186 178 171 162 157 165 168 163 162 165 162 166 163 154 161 157 136 118 117 102 141 164 161 155 165 175 179 166 167 191 176 168 143 151 161 150 158 157 177 205 245 258 297 303 321 290 292 275 288 284 281 273 90 345 323 324 327 329 328 328 329
194 203 204 207 206 205 204 205 208 209 211 213 204 199 211 208 197 185 206 200 204 202 198 191 185 178 173 169 164 164 163 165 169 167 166 166 160 148 139 131 128 113 109 120 124 127 142 157 162 174 171 156 170 166 175 146 144 172 163 185 179 164 185 208 223 256 270 324 327 324 295 289 294 316 303 289 10 333 319 327 331 332 333 335 335
196 200 199 204 207 203 201 199 203 208 214 205 201 202 205 206 201 192 201 202 200 203 199 193 185 176 171 169 167 162 162 169 172 169 165 158 144 143 140 131 121 115 112 118 119 122 129 145 147 142 145 146 152 154 167 170 167 185 161 175 180 179 172 341 349 251 279 348 54 356 287 319 343 341 330 359 333 330 325 330 336 345 343 340 340
211 203 213 204 202 200 199 197 201 213 213 201 198 203 198 202 200 196 199 200 201 201 199 192 181 171 167 166 164 164 167 170 173 169 159 143 143 140 134 127 117 107 99 111 114 119 127 137 142 144 153 158 162 172 169 176 180 180 177 110 84 94 111 190 242 213 166 18 48 46 294 307 3 357 320 351 344 320 325 331 356 352 348 345 344
199 202 205 200 198 194 193 196 200 215 216 204 202 205 204 202 200 197 194 197 198 196 196 184 174 165 165 166 162 161 164 165 171 168 160 151 143 141 133 127 122 121 121 115 128 135 141 145 146 148 160 173 178 187 190 185 184 168 131 123 203 155 120 162 258 164 277 74 2 29 326 307 356 356 320 331 342 301 324 2 17 348 350 349 348
206 209 199 197 197 193 190 197 200 204 214 202 199 203 203 203 197 192 187 190 192 183 170 158 152 152 156 159 156 154 159 163 161 152 148 148 140 139 134 133 136 132 134 130 124 143 149 151 156 162 164 162 161 151 156 121 87 106 145 164 166 118 146 196 198 123 267 83 1 21 29 296 15 342 334 309 329 248 52 14 356 343 344 345 350
207 180 186 185 190 190 197 199 197 199 196 193 197 200 200 199 194 181 182 183 176 162 144 128 129 143 147 158 160 163 161 161 152 145 140 136 138 143 145 140 143 153 161 154 153 144 138 124 121 112 100 121 79 77 78 79 76 69 81 115 106 127 142 168 147 210 272 160 76 48 54 297 39 322 12 342 336 268 148 57 346 329 323 336 352